TimeMST,TemperatureF,Dew PointF,Humidity,Sea Level PressureIn,VisibilityMPH,Wind Direction,Wind SpeedMPH,Gust SpeedMPH,PrecipitationIn,Events,Conditions,WindDirDegrees,DateUTC
12:53 AM,23.0,15.1,72,30.00,10.0,Calm,Calm,-,N/A,,Overcast,0,2013-02-26 07:53:00
1:53 AM,23.0,16.0,74,29.97,10.0,Calm,Calm,-,N/A,,Overcast,0,2013-02-26 08:53:00
2:53 AM,23.0,15.1,72,29.94,10.0,West,5.8,-,N/A,,Overcast,280,2013-02-26 09:53:00
3:53 AM,24.1,16.0,71,29.92,10.0,West,11.5,-,N/A,,Overcast,280,2013-02-26 10:53:00
4:23 AM,24.8,17.6,74,29.88,2.5,West,6.9,-,0.00,Snow,Light Snow,260,2013-02-26 11:23:00
4:33 AM,23.0,17.6,80,29.87,1.5,West,3.5,-,0.00,Snow,Light Snow,260,2013-02-26 11:33:00
4:43 AM,23.0,17.6,80,29.87,1.5,Calm,Calm,-,0.00,Snow,Light Snow,0,2013-02-26 11:43:00
4:51 AM,23.0,19.4,86,29.88,1.2,Calm,Calm,-,0.00,Snow,Light Snow,0,2013-02-26 11:51:00
4:53 AM,23.0,19.0,85,29.93,1.2,Calm,Calm,-,0.00,Snow,Light Snow,0,2013-02-26 11:53:00
5:02 AM,23.0,19.4,86,29.87,1.5,SW,3.5,-,0.00,Snow,Light Snow,220,2013-02-26 12:02:00
5:29 AM,23.0,19.4,86,29.87,2.0,SSW,8.1,-,0.01,Snow,Light Snow,210,2013-02-26 12:29:00
5:53 AM,23.0,19.0,85,29.94,1.8,South,4.6,-,0.01,Snow,Light Snow,180,2013-02-26 12:53:00
6:28 AM,23.0,19.4,86,29.88,2.0,Calm,Calm,-,0.00,Snow,Light Snow,0,2013-02-26 13:28:00
6:38 AM,23.0,19.4,86,29.88,1.8,Variable,6.9,-,0.01,Snow,Light Snow,0,2013-02-26 13:38:00
6:53 AM,23.0,19.9,88,29.98,1.2,WNW,8.1,-,0.01,Snow,Light Snow,290,2013-02-26 13:53:00
7:02 AM,23.0,21.2,93,29.89,1.0,WNW,9.2,-,0.00,Snow,Light Snow,290,2013-02-26 14:02:00
7:11 AM,23.0,21.2,93,29.89,0.8,WSW,3.5,-,0.01,Snow,Light Snow,250,2013-02-26 14:11:00
7:15 AM,23.0,21.2,93,29.88,1.2,SW,4.6,-,0.01,Snow,Light Snow,230,2013-02-26 14:15:00
7:24 AM,23.0,21.2,93,29.89,2.0,WSW,11.5,-,0.01,Snow,Light Snow,240,2013-02-26 14:24:00
7:34 AM,24.8,21.2,86,29.89,7.0,West,17.3,-,0.01,,Overcast,260,2013-02-26 14:34:00
7:53 AM,25.0,19.9,81,29.98,10.0,West,18.4,-,0.01,,Overcast,270,2013-02-26 14:53:00
8:53 AM,27.0,12.9,56,29.99,10.0,West,16.1,-,N/A,,Overcast,280,2013-02-26 15:53:00
9:53 AM,28.9,12.0,49,30.00,10.0,WNW,18.4,-,N/A,,Overcast,290,2013-02-26 16:53:00
10:53 AM,30.0,12.9,49,30.00,10.0,WNW,20.7,28.8,N/A,,Overcast,290,2013-02-26 17:53:00
11:53 AM,30.0,12.9,49,30.01,10.0,WNW,21.9,32.2,N/A,,Overcast,290,2013-02-26 18:53:00
12:53 PM,30.9,12.0,46,30.02,10.0,WNW,21.9,31.1,N/A,,Overcast,290,2013-02-26 19:53:00
1:53 PM,30.9,14.0,50,30.04,10.0,West,20.7,29.9,N/A,,Overcast,270,2013-02-26 20:53:00
2:53 PM,30.9,15.1,52,30.06,10.0,West,19.6,28.8,N/A,,Overcast,270,2013-02-26 21:53:00
3:53 PM,30.0,17.1,59,30.09,10.0,WNW,20.7,-,N/A,,Overcast,290,2013-02-26 22:53:00
5:53 PM,28.9,16.0,58,30.15,10.0,WNW,15.0,-,N/A,,Mostly Cloudy,300,2013-02-27 00:53:00
6:53 PM,28.0,16.0,61,30.18,10.0,West,17.3,-,N/A,,Mostly Cloudy,280,2013-02-27 01:53:00
7:53 PM,28.0,15.1,58,30.20,10.0,West,15.0,-,N/A,,Overcast,280,2013-02-27 02:53:00
8:53 PM,27.0,15.1,61,30.23,10.0,West,13.8,-,N/A,,Overcast,280,2013-02-27 03:53:00
9:53 PM,25.0,12.9,60,30.25,10.0,West,13.8,-,N/A,,Mostly Cloudy,280,2013-02-27 04:53:00
10:53 PM,23.0,12.9,65,30.27,10.0,West,13.8,-,N/A,,Clear,270,2013-02-27 05:53:00
11:53 PM,23.0,12.9,65,30.28,10.0,West,10.4,-,N/A,,Clear,270,2013-02-27 06:53:00